Glens Falls, NY

1:34 PM EST on December 14, 2019 (GMT -0500)
Bennett Memorial

Weather History for KGFL - October, 2019

Change the Weather History Date:

Monday, October 14, 2019

  Actual Average Record
Temperature  
Mean Temperature 50 °F 47 °F  
Max Temperature 68 °F 59 °F 78 °F (2014)
Min Temperature 31 °F 35 °F 19 °F (1993)
Degree Days  
Heating Degree Days 15 18  
Month to date heating degree days 194 217  
Since 1 July heating degree days 416 502  
Cooling Degree Days 0 0  
Month to date cooling degree days 0 0  
Year to date cooling degree days 416 351  
Moisture  
Dew Point 35 °F    
Average Humidity 70    
Maximum Humidity 100    
Minimum Humidity 40    
Precipitation  
Precipitation 0.00 in 0.12 in 1.00 in (2011)
Month to date precipitation 1.42 1.62  
Year to date precipitation 32.27 30.81  
Sea Level Pressure  
Sea Level Pressure 29.97 in    
Wind  
Wind Speed 4 mph (SW)    
Max Wind Speed 15 mph    
Max Gust Speed 20 mph    
Visibility 5 miles    
Events Fog    
T = Trace of Precipitation, MM = Missing Value Source: NWS Daily Summary

Daily Weather History Graph

Daily Weather History Graph

Search for Another Location

Airport or City:

Astronomy

Oct. 14, 2019 Rise Set
Actual Time 7:06 AM EDT 6:13 PM EDT
Civil Twilight 6:38 AM EDT 6:42 PM EDT
Nautical Twilight 6:05 AM EDT 7:15 PM EDT
Astronomical Twilight 5:31 AM EDT 7:48 PM EDT
Moon 7:02 PM EDT 7:35 AM EDT
Length of Visible Light 12h 04m
Length of Day
11h 06m
Waxing Gibbous, 99% of the Moon is Illuminated
Oct 14
Waxing Gibbous
Oct 21
Last Quarter
Oct 27
New
Nov 4
First Quarter
Nov 12
Full

Hourly Weather History & Observations

Time (EDT) Temp. Dew Point Humidity Pressure Visibility Wind Dir Wind Speed Gust Speed Precip Events Conditions
12:04 AM 37.0 °F 37.0 °F 100% 29.99 in 3.0 mi Calm Calm - N/A   Scattered Clouds
12:49 AM 37.4 °F 35.6 °F 93% 29.99 in 2.0 mi Calm Calm - N/A   Clear
12:53 AM 37.9 °F 37.0 °F 97% 30.01 in 6.0 mi Calm Calm - N/A   Clear
1:09 AM 37.9 °F 37.0 °F 97% 29.99 in 2.5 mi Calm Calm - N/A   Clear
1:17 AM 36.0 °F 35.1 °F 97% 29.99 in 1.0 mi Calm Calm - N/A   Clear
1:32 AM 37.0 °F 35.1 °F 93% 29.99 in 3.0 mi Calm Calm - N/A   Clear
1:51 AM 35.6 °F 33.8 °F 93% 29.99 in 0.8 mi Calm Calm - N/A   Clear
1:53 AM 34.0 °F 33.1 °F 96% 30.00 in 0.8 mi Calm Calm - N/A   Clear
2:06 AM 35.1 °F 34.0 °F 96% 29.98 in 1.2 mi Calm Calm - N/A   Clear
2:16 AM 35.1 °F 34.0 °F 96% 29.98 in 0.5 mi Calm Calm - N/A Fog Fog
2:22 AM 35.1 °F 33.1 °F 92% 29.98 in 2.5 mi Calm Calm - N/A   Clear
2:29 AM 35.1 °F 33.1 °F 92% 29.97 in 10.0 mi Calm Calm - N/A   Clear
2:40 AM 34.0 °F 33.1 °F 96% 29.97 in 1.5 mi Calm Calm - N/A   Clear
2:53 AM 34.0 °F 33.1 °F 96% 29.98 in 1.2 mi Calm Calm - N/A   Clear
2:57 AM 34.0 °F 33.1 °F 96% 29.96 in 4.0 mi Calm Calm - N/A   Clear
3:14 AM 33.1 °F 32.0 °F 96% 29.95 in 1.8 mi Calm Calm - N/A   Clear
3:24 AM 34.0 °F 32.0 °F 92% 29.95 in 0.8 mi Calm Calm - N/A   Clear
3:35 AM 33.1 °F 32.0 °F 96% 29.95 in 1.0 mi Calm Calm - N/A   Clear
3:42 AM 33.1 °F 30.9 °F 92% 29.95 in 0.5 mi Calm Calm - N/A Fog Fog
3:53 AM 34.0 °F 32.0 °F 92% 29.96 in 1.0 mi Calm Calm - N/A   Clear
4:02 AM 33.1 °F 32.0 °F 96% 29.95 in 3.0 mi Calm Calm - N/A   Clear
4:25 AM 33.1 °F 30.9 °F 92% 29.95 in 2.0 mi Calm Calm - N/A   Clear
4:34 AM 33.1 °F 32.0 °F 96% 29.95 in 7.0 mi Calm Calm - N/A   Clear
4:51 AM 33.8 °F 32.0 °F 93% 29.96 in 1.8 mi Calm Calm - N/A   Clear
4:53 AM 33.1 °F 32.0 °F 96% 29.97 in 1.2 mi Calm Calm - N/A   Clear
5:03 AM 34.0 °F 32.0 °F 92% 29.95 in 4.0 mi Calm Calm - N/A   Clear
5:37 AM 30.9 °F 30.9 °F 100% 29.95 in 1.5 mi Calm Calm - N/A   Clear
5:49 AM 32.0 °F 30.2 °F 93% 29.96 in 4.0 mi Calm Calm - N/A   Clear
5:53 AM 32.0 °F 30.0 °F 92% 29.98 in 7.0 mi Calm Calm - N/A   Clear
6:09 AM 32.0 °F 30.9 °F 96% 29.96 in 1.5 mi Calm Calm - N/A   Clear
6:34 AM 32.0 °F 30.9 °F 96% 29.96 in 3.0 mi Calm Calm - N/A   Clear
6:53 AM 32.0 °F 30.9 °F 96% 29.98 in 2.0 mi Calm Calm - N/A   Clear
7:07 AM 33.1 °F 30.9 °F 92% 29.96 in 10.0 mi Calm Calm - N/A   Clear
7:16 AM 32.0 °F 30.9 °F 96% 29.96 in 1.8 mi Calm Calm - N/A   Clear
7:41 AM 33.1 °F 30.9 °F 92% 29.95 in 3.0 mi Calm Calm - N/A   Clear
7:53 AM 34.0 °F 32.0 °F 92% 29.97 in 10.0 mi Calm Calm - N/A   Clear
8:53 AM 44.1 °F 41.0 °F 89% 29.98 in 10.0 mi Calm Calm - N/A   Clear
9:41 AM 50.0 °F 44.1 °F 80% 29.96 in 10.0 mi South 4.6 mph - N/A   Mostly Cloudy
9:53 AM 50.0 °F 44.1 °F 80% 29.97 in 10.0 mi South 4.6 mph - N/A   Mostly Cloudy
10:38 AM 54.0 °F 46.0 °F 75% 29.95 in 10.0 mi SSW 10.4 mph - N/A   Scattered Clouds
10:53 AM 55.9 °F 46.9 °F 72% 29.96 in 10.0 mi South 6.9 mph - N/A   Clear
11:53 AM 59.0 °F 48.0 °F 67% 29.94 in 10.0 mi South 9.2 mph - N/A   Clear
12:53 PM 63.0 °F 46.9 °F 56% 29.90 in 10.0 mi South 9.2 mph - N/A   Clear
1:53 PM 64.9 °F 44.1 °F 47% 29.88 in 10.0 mi South 10.4 mph - N/A   Clear
2:53 PM 66.0 °F 42.1 °F 42% 29.87 in 10.0 mi SSW 11.5 mph - N/A   Mostly Cloudy
3:53 PM 64.9 °F 39.9 °F 40% 29.88 in 10.0 mi West 10.4 mph 19.6 mph N/A   Overcast
4:53 PM 64.0 °F 39.0 °F 40% 29.89 in 10.0 mi West 10.4 mph - N/A   Overcast
5:53 PM 60.1 °F 39.0 °F 46% 29.93 in 10.0 mi West 11.5 mph 18.4 mph N/A   Overcast
6:53 PM 57.9 °F 39.0 °F 49% 29.96 in 10.0 mi WNW 12.7 mph 23.0 mph N/A   Overcast
7:53 PM 55.0 °F 37.0 °F 51% 30.00 in 10.0 mi WNW 15.0 mph 18.4 mph N/A   Partly Cloudy
8:53 PM 53.1 °F 36.0 °F 52% 30.03 in - North - - N/A   Unknown
9:53 PM - - N/A% 30.04 in - North - - N/A   Unknown
10:53 PM - - N/A% 30.06 in - North - - N/A   Unknown
11:53 PM - - N/A% 30.06 in - North - - N/A   Unknown